Tracking 25710 objects as of 5-Jul-2022
HD Live streaming from Space Station
objects crossing your sky now

FENGYUN 1C DEB

Track FENGYUN 1C DEB now!
10-day predictions


NORAD ID: 37044
Int'l Code: 1999-025EEC
Perigee: 639.2 km
Apogee: 1,516.0 km
Inclination: 98.9 °
Period: 106.6 minutes
Semi major axis: 7448 km
RCS: 0.0003 m2 (small)
Launch date: May 10, 1999
Source: People's Republic of China (PRC)
Launch site: Taiyaun Space Center, China (TSC)

Note: This is SATELLITE DEBRIS
aabbcc
Your satellite tracking list
Your tracking list is empty




NASA's NSSDC Master Catalog

Two Line Element Set (TLE):
1 37044U 99025EEC 22184.35403084  .00000860  00000-0  47054-3 0  9994
2 37044  98.9094  20.0086 0588590 188.9810 170.0420 13.50494642667736
Source of the keplerian elements: AFSPC